Livingston, MT

3:38 PM MDT on May 22, 2017 (GMT -0600)
Mission

Weather History for KLVM - October, 2012

Change the Weather History Date:

Saturday, October 13, 2012

  Actual Average Record
Temperature  
Mean Temperature 52 °F 46 °F  
Max Temperature 62 °F 60 °F 83 °F (1964)
Min Temperature 43 °F 32 °F 13 °F (1969)
Degree Days  
Heating Degree Days 12 19  
Month to date heating degree days 221  
Since 1 July heating degree days 630  
Cooling Degree Days 0 0  
Month to date cooling degree days 0  
Year to date cooling degree days 229  
Growing Degree Days 2 (Base 50)    
Moisture  
Dew Point 29 °F    
Average Humidity 41    
Maximum Humidity 54    
Minimum Humidity 27    
Precipitation  
Precipitation 0.00 in 0.04 in 0.63 in (1968)
Month to date precipitation 0.62  
Year to date precipitation 13.06  
Sea Level Pressure  
Sea Level Pressure 29.93 in    
Wind  
Wind Speed 12 mph (West)    
Max Wind Speed 24 mph    
Max Gust Speed 32 mph    
Visibility 10 miles    
Events      
T = Trace of Precipitation, MM = Missing Value Source: NWS Daily Summary

Daily Weather History Graph

Daily Weather History Graph

Search for Another Location

Airport or City:

Trip Planner

Search our weather history database for the weather conditions in past years. The results will help you decide how hot, cold, wet, or windy it might be!

Date:

Astronomy

Oct. 13, 2012 Rise Set
Actual Time 7:36 AM MDT 6:38 PM MDT
Civil Twilight 7:06 AM MDT 7:08 PM MDT
Nautical Twilight 6:32 AM MDT 7:42 PM MDT
Astronomical Twilight 5:57 AM MDT 8:17 PM MDT
Moon 5:25 AM MDT (10/13) 5:27 PM MDT (10/13)
Length of Visible Light 12h 02m
Length of Day
11h 02m
Waning Crescent, 4% of the Moon is Illuminated
Oct 13
Waning Crescent
Oct 15
New
Oct 21
First Quarter
Oct 29
Full
Nov 6
Last Quarter

Hourly Weather History & Observations

Time (MDT) Temp. Windchill Dew Point Humidity Pressure Visibility Wind Dir Wind Speed Gust Speed Precip Events Conditions
12:53 AM 52.0 °F - 24.1 °F 34% 29.75 in 10.0 mi WSW 9.2 mph - N/A   Clear
1:53 AM 46.9 °F - 24.1 °F 41% 29.75 in 10.0 mi West 5.8 mph - N/A   Clear
2:53 AM 46.9 °F - 23.0 °F 39% 29.77 in 10.0 mi West 10.4 mph - N/A   Clear
3:53 AM 48.0 °F - 23.0 °F 37% 29.79 in 10.0 mi WSW 10.4 mph - N/A   Mostly Cloudy
4:53 AM 50.0 °F - 23.0 °F 35% 29.80 in 10.0 mi WNW 9.2 mph - N/A   Partly Cloudy
5:53 AM 43.0 °F 38.8 °F 23.0 °F 45% 29.84 in 10.0 mi WSW 6.9 mph - N/A   Partly Cloudy
6:53 AM 50.0 °F - 24.1 °F 36% 29.87 in 10.0 mi WSW 9.2 mph - N/A   Overcast
7:53 AM 48.9 °F - 25.0 °F 39% 29.90 in 10.0 mi West 9.2 mph - N/A   Overcast
8:53 AM 51.1 °F - 24.1 °F 35% 29.91 in 10.0 mi West 9.2 mph - N/A   Overcast
9:53 AM 54.0 °F - 25.0 °F 33% 29.92 in 10.0 mi West 6.9 mph - N/A   Overcast
10:53 AM 57.0 °F - 23.0 °F 27% 29.95 in 10.0 mi West 20.7 mph 24.2 mph N/A   Overcast
11:53 AM 53.1 °F - 34.0 °F 48% 30.02 in 10.0 mi WNW 13.8 mph 26.5 mph 0.00 in   Overcast
12:53 PM 52.0 °F - 36.0 °F 54% 30.04 in 10.0 mi West 19.6 mph - N/A   Overcast
1:53 PM 54.0 °F - 36.0 °F 51% 30.02 in 10.0 mi West 19.6 mph 24.2 mph N/A   Overcast
2:53 PM 57.0 °F - 36.0 °F 45% 30.02 in 10.0 mi West 18.4 mph 28.8 mph N/A   Mostly Cloudy
3:53 PM 62.1 °F - 36.0 °F 38% 30.01 in 10.0 mi West 24.2 mph 32.2 mph N/A   Mostly Cloudy
4:53 PM 60.1 °F - 35.1 °F 39% 30.02 in 10.0 mi West 19.6 mph 29.9 mph N/A   Clear
6:53 PM 55.9 °F - 34.0 °F 44% 30.06 in 10.0 mi WSW 13.8 mph - N/A   Partly Cloudy
8:53 PM 55.9 °F - 33.1 °F 42% 30.10 in 10.0 mi WSW 19.6 mph - N/A   Mostly Cloudy
11:53 PM 52.0 °F - 33.1 °F 49% 30.11 in 10.0 mi WSW 17.3 mph - N/A   Scattered Clouds